Showing default

COSMOS 2385, 27056

Orbit data source: Space-Track

COSMOS 2385, 27056 is a payload satellite owned by KVR (CIS) in LEO that was launched on Fri, 28 Dec 2001 UTC via a TSIKLON-3 launch vehicle from the Plesetsk Missile And Space Complex (PKMTR). Payload-class satellites include a variety of spacecraft equipped with specific instruments for various scientific and technological missions. These include communications satellites like Starlink; space stations such as the ISS; scientific satellites like the Hubble; Earth observation satellites from companies like Planet Labs, Umbra, and HawkEye 360; GPS; miniature CubeSats for education and research; and military/defense satellites.

Loading next visibility...
Identifier
27056, 2001-058B
Orbit
LEO
Country
Flag of CISCIS
Related business
Manufacturer
NPO PM
Mission
Operational Defense Communications
Bus & Motor
STRELA-3, Unknown motor
Mass
225 kg wet, 225 kg dry
Launch date (UTC)
2001-12-28 (24 years ago)
Launch vehicle
TSIKLON-3
Launch site
Plesetsk Missile And Space Complex (PKMTR)
Object type
Payload
Rocket body
Debris
Shape & HBR
Cyl + 1 Arm, 3.5 m
Radar Cross Section
1.257 m², Medium (>0.1 m² and < 1m²)

Expand to show TLE details & history
Last TLE update: 11 hours ago

TLE from 11 hours ago
0 COSMOS 2385
1 27056U 01058B   25296.21559824  .00000044  00000-0  19139-3 0  9998
2 27056  82.5427  11.4124 0006891  57.3695 356.2518 12.60558874 95923
Epoch: 2025-10-23T05:10Z
TLE epoch observation values (Epoch: 2025-10-23T05:10:27.687Z)
Latitude
53.05547°
Longitude
-88.10742°
Altitude
1,423.865 km
Speed
7.156 km/s
True Right ascension
01h 25m 32s
True Declination
52° 54' 15"
Sunlit
Object was in full shadow at epoch
Visualization orbit readout
Latitude
Unknown
Longitude
Unknown
Altitude
Unknown
Speed
Unknown
Apparent Right ascension
Unknown
Apparent Declination
Unknown
Sunlit
N/A
Visualization observer readout
Local Sidereal Time
10:52:07
Azimuth
Unknown
Elevation
Unknown
Doppler factor
Unknown
Orbital elements
Apogee altitude
1,423.335 km
Perigee altitude
1,412.591 km
Semi-major axis
7,796.1 km
Eccentricity
0.00069
Inclination
82.5427°
RAAN
11.4124°
Arg. of periapsis
57.3695°
True anomaly
356.24663°
Mean anomaly
356.2518°
Eccentric anomaly
356.24922°
Mean motion
3.15302 °/min
Orbital period
114.18 mins
BSTAR
0.00019139
Loading maneuver chart data...
Computing Atmospheric mass density...
Loading historical data...
Loading historical data...
Loading historical data...
Loading historical data...
Loading historical data...
Loading historical data...
Loading historical data...

Documentation

Showing up to 5 results
|